Location: Sternwarte ZA, Rosenfeld-Brittheim
(48.2889°N, 8.6789°E)
Time: 21:12:07
(UTC+01:00)

ISS - Pass Details

Date: 14 February 2018
Orbit: 403 x 407 km, 51.6° (Epoch: 20 February)

Event Time Altitude Azimuth Distance (km) Brightness Sun altitude
Rises 18:24:35 0° 284° (WNW) 2,320 1.4 -7.1°
Reaches altitude 10° 18:27:20 10° 259° (W) 1,457 0.8 -7.6°
Maximum altitude 18:29:13 15° 224° (SW) 1,211 -0.6 -7.9°
Drops below altitude 10° 18:31:05 10° 188° (S) 1,452 -0.8 -8.2°
Sets 18:33:49 0° 163° (SSE) 2,306 -0.1 -8.6°
